Regional Weather Roundup
Issued by NWS

Home | Current Version | Previous Version | Graphics & Text | Print | Product List | Glossary On
Versions: 1 2 3 4 5 6 7 8 9 10 11 12 13 14 15 16 17 18 19 20 21 22 23 24 25 26 27 28 29 30 31 32 33 34 35 36 37 38 39 40 41 42 43 44 45 46 47 48 49 50
872
ASUS44 KLIX 191005
RWRLA
LOUISIANA WEATHER ROUNDUP
NATIONAL WEATHER SERVICE NEW ORLEANS LA
500 AM CDT FRI SEP 19 2014

NOTE: "FAIR" INDICATES FEW OR NO CLOUDS BELOW 12,000 FEET WITH NO
      SIGNIFICANT WEATHER AND/OR OBSTRUCTIONS TO VISIBILITY.
      SKY/WX - SKY CONDITION AND SIGNIFICANT WEATHER.
      TMP - AIR TEMPERATURE.    DP   - DEWPOINT TEMPERATURE.
      RH  - RELATIVE HUMIDITY.  PRES - PRESSURE.
      HX  - HEAT INDEX.         WCI  - WIND CHILL INDEX.

*  THESE STATIONS ARE NOT NWS OR FAA STATIONS AND ARE NOT UNDER
   NWS QUALITY CONTROL.

LAZ040-048-061>063-065-066-069-191100-
SOUTHEAST LOUISIANA

CITY           SKY/WX    TMP DP  RH WIND       PRES   REMARKS
N.O. AUDUBON     N/A     76  73  90 MISG        N/A
N.O. INTL ARPT CLOUDY    75  68  78 SE3       29.91S
N.O. LAKEFRONT CLOUDY    74  71  91 SE7       29.91S
N.O. DOWNTOWN* CLOUDY    75  66  73 CALM      29.91S
SLIDELL        CLOUDY    72  70  93 N3        29.91R
BATON ROUGE    MOCLDY    72  70  93 NE5       29.91R
BOOTHVILLE     LGT RAIN  75  70  84 E17       29.92R
BELLE CHASSE   LGT RAIN  75  70  84 SE6       29.90S
BOGALUSA*        N/A     73  69  88 CALM      29.93F FOG
GALLIANO*      NOT AVBL
NEW ROADS*     CLOUDY    71  70  97 E3        29.92R
GONZALES*      CLOUDY    73  73 100 CALM      29.89S
HAMMOND*       CLOUDY    72  68  88 E3        29.93R
HOUMA*         CLOUDY    73  67  79 NE3       29.90S
PORT FOURCHON* CLOUDY    73  72  94 NE13G18   29.93S FOG

$$

LAZ041-044-053-054-191100-
SOUTHWEST LOUISIANA

CITY           SKY/WX    TMP DP  RH WIND       PRES   REMARKS
LAKE CHARLES   CLOUDY    76  75  97 E3        29.89R FOG
LAFAYETTE      MOCLDY    73  72  96 NE3       29.90R
PATTERSON      CLOUDY    73  72  94 E7        29.92S
SALT POINT       N/A     76  74  93 CALM      29.89R
NEW IBERIA     CLOUDY    74  72  93 CALM      29.90R
CHENAULT AIRPK NOT AVBL

$$

LAZ027-028-191100-
CENTRAL LOUISIANA

CITY           SKY/WX    TMP DP  RH WIND       PRES   REMARKS
FORT POLK      MOCLDY    73  72  94 CALM      29.90S
ALEXANDRIA INT PTCLDY    70  69  97 CALM      29.88F
ALEXANDRIA     PTCLDY    71  68  90 CALM      29.91R

$$

LAZ001-002-191100-
NORTHWEST LOUISIANA

CITY           SKY/WX    TMP DP  RH WIND       PRES   REMARKS
SHREVEPORT     MOCLDY    71  68  90 CALM      29.91S
BARKSDALE AFB  PTCLDY    71  70  98 N1        29.91F
DTN SHREVEPORT PTCLDY    72  70  93 NE3       29.92S

$$

LAZ014-016-191100-
NORTHEAST LOUISIANA

CITY           SKY/WX    TMP DP  RH WIND       PRES   REMARKS
MONROE         CLEAR     67  65  93 NE3       29.92F
TALLULAH       CLEAR     66  64  93 CALM      29.94R

$$




USA.gov is the U.S. government's official web portal to all federal, state and local government web resources and services.